SWA1311 KHOU-KMSY

Flight info

Callsign SWA1311
Flight time 0h 39m
Altitude 35000
Route ELOCO6 LLA AWDAD AWDAD1
Aircraft B736/M-SDE2E3FGHIRWXY/LB1

Departure

Time 2026-05-06 17:54
Airport William P. Hobby Airport (KHOU)

Arrival

Time 2026-05-06 18:33
Airport Louis Armstrong New Orleans International Airport (KMSY)
Time Latitude Longitude Altitude Speed Heading
2026-05-06 17:46 29.65162 -95.27517 49 ft 0 kts 22°
2026-05-06 17:49 29.65163 -95.27516 49 ft 2 kts 27°
2026-05-06 17:49 29.65166 -95.27493 48 ft 4 kts 101°
2026-05-06 17:49 29.65152 -95.27461 46 ft 5 kts 112°
2026-05-06 17:49 29.65151 -95.27422 49 ft 5 kts 79°
2026-05-06 17:50 29.65170 -95.27389 49 ft 5 kts 43°
2026-05-06 17:50 29.65195 -95.27363 48 ft 5 kts 44°
2026-05-06 17:50 29.65218 -95.27336 47 ft 5 kts 44°
2026-05-06 17:50 29.65242 -95.27310 48 ft 5 kts 43°
2026-05-06 17:51 29.65265 -95.27286 47 ft 4 kts 43°
2026-05-06 17:51 29.65287 -95.27261 45 ft 4 kts 44°
2026-05-06 17:51 29.65309 -95.27237 47 ft 4 kts 44°
2026-05-06 17:51 29.65330 -95.27214 48 ft 4 kts 44°
2026-05-06 17:52 29.65350 -95.27191 47 ft 4 kts 45°
2026-05-06 17:52 29.65369 -95.27169 47 ft 4 kts 45°
2026-05-06 17:52 29.65430 -95.27101 48 ft 15 kts 43°
2026-05-06 17:52 29.65486 -95.27011 45 ft 12 kts 90°
2026-05-06 17:53 29.65456 -95.26936 47 ft 10 kts 134°
2026-05-06 17:53 29.65395 -95.26913 46 ft 10 kts 191°
2026-05-06 17:53 29.65341 -95.26963 46 ft 15 kts 224°
2026-05-06 17:53 29.65125 -95.27199 46 ft 69 kts 224°
2026-05-06 17:54 29.64645 -95.27722 53 ft 133 kts 223°
2026-05-06 17:54 29.63867 -95.28559 780 ft 156 kts 220°
2026-05-06 17:54 29.63096 -95.29345 2223 ft 143 kts 218°
2026-05-06 17:54 29.62334 -95.30092 3200 ft 154 kts 218°
2026-05-06 17:55 29.61407 -95.30999 3657 ft 196 kts 220°
2026-05-06 17:55 29.60248 -95.32057 4032 ft 227 kts 206°
2026-05-06 17:55 29.58689 -95.32426 4911 ft 236 kts 179°
2026-05-06 17:55 29.57071 -95.31883 5776 ft 257 kts 153°
2026-05-06 17:56 29.55745 -95.30378 6632 ft 281 kts 124°
2026-05-06 17:56 29.55156 -95.28186 7680 ft 296 kts 96°
2026-05-06 17:56 29.55322 -95.25819 8741 ft 307 kts 83°
2026-05-06 17:56 29.55775 -95.23370 9769 ft 319 kts 79°
2026-05-06 17:57 29.56313 -95.20849 10584 ft 334 kts 79°
2026-05-06 17:57 29.56886 -95.18150 10989 ft 361 kts 79°
2026-05-06 17:57 29.57468 -95.15314 11865 ft 367 kts 80°
2026-05-06 17:57 29.58038 -95.12439 12896 ft 371 kts 81°
2026-05-06 17:58 29.58600 -95.09505 13745 ft 381 kts 81°
2026-05-06 17:58 29.59161 -95.06499 14520 ft 387 kts 81°
2026-05-06 17:58 29.59720 -95.03455 15313 ft 392 kts 81°
2026-05-06 17:58 29.60283 -95.00364 16081 ft 399 kts 81°
2026-05-06 17:59 29.60854 -94.97213 16836 ft 405 kts 81°
2026-05-06 17:59 29.61430 -94.94020 17602 ft 412 kts 81°
2026-05-06 17:59 29.62015 -94.90775 18351 ft 417 kts 81°
2026-05-06 17:59 29.62608 -94.87485 19034 ft 423 kts 81°
2026-05-06 18:00 29.63208 -94.84147 19721 ft 429 kts 81°
2026-05-06 18:00 29.63817 -94.80762 20418 ft 435 kts 81°
2026-05-06 18:00 29.64431 -94.77341 21098 ft 441 kts 81°
2026-05-06 18:00 29.65054 -94.73863 21787 ft 447 kts 81°
2026-05-06 18:01 29.65676 -94.70388 22442 ft 452 kts 80°
2026-05-06 18:01 29.66312 -94.66828 23115 ft 458 kts 80°
2026-05-06 18:01 29.66956 -94.63216 23729 ft 463 kts 80°
2026-05-06 18:01 29.67607 -94.59556 24289 ft 469 kts 80°
2026-05-06 18:02 29.68265 -94.55857 24876 ft 473 kts 80°
2026-05-06 18:02 29.68927 -94.52125 25456 ft 478 kts 80°
2026-05-06 18:02 29.69594 -94.48359 25999 ft 484 kts 80°
2026-05-06 18:02 29.70270 -94.44541 26535 ft 489 kts 80°
2026-05-06 18:03 29.70940 -94.40743 27062 ft 494 kts 80°
2026-05-06 18:03 29.71591 -94.36848 27592 ft 498 kts 84°
2026-05-06 18:03 29.71877 -94.32878 28094 ft 499 kts 93°
2026-05-06 18:03 29.71650 -94.28902 28599 ft 498 kts 102°
2026-05-06 18:04 29.71177 -94.24942 29107 ft 501 kts 103°
2026-05-06 18:04 29.70662 -94.20956 29578 ft 506 kts 103°
2026-05-06 18:04 29.70158 -94.16931 30040 ft 511 kts 103°
2026-05-06 18:04 29.69681 -94.12856 30445 ft 515 kts 102°
2026-05-06 18:05 29.69220 -94.08744 30860 ft 519 kts 102°
2026-05-06 18:05 29.68765 -94.04613 31265 ft 523 kts 101°
2026-05-06 18:05 29.68533 -94.00411 31636 ft 529 kts 95°
2026-05-06 18:05 29.68478 -93.96162 32013 ft 533 kts 92°
2026-05-06 18:06 29.68735 -93.91943 32449 ft 537 kts 82°
2026-05-06 18:06 29.69358 -93.87711 33033 ft 535 kts 80°
2026-05-06 18:06 29.70046 -93.83510 33612 ft 534 kts 79°
2026-05-06 18:06 29.70752 -93.79315 34109 ft 533 kts 79°
2026-05-06 18:07 29.71451 -93.75127 34607 ft 530 kts 80°
2026-05-06 18:07 29.72131 -93.70953 34941 ft 531 kts 80°
2026-05-06 18:07 29.73449 -93.62559 34947 ft 533 kts 81°
2026-05-06 18:08 29.74717 -93.54268 34945 ft 528 kts 81°
2026-05-06 18:08 29.75982 -93.45942 34954 ft 529 kts 81°
2026-05-06 18:09 29.77250 -93.37584 34952 ft 530 kts 81°
2026-05-06 18:09 29.78520 -93.29199 34944 ft 531 kts 81°
2026-05-06 18:10 29.79785 -93.20812 34949 ft 532 kts 81°
2026-05-06 18:10 29.81038 -93.12468 34951 ft 531 kts 81°
2026-05-06 18:11 29.82079 -93.05508 34959 ft 531 kts 81°
2026-05-06 18:11 29.83537 -92.95707 34964 ft 530 kts 81°
2026-05-06 18:12 29.84775 -92.87350 34970 ft 530 kts 81°
2026-05-06 18:12 29.86009 -92.78983 34972 ft 529 kts 81°
2026-05-06 18:13 29.87234 -92.70637 34973 ft 528 kts 81°
2026-05-06 18:13 29.88455 -92.62277 34976 ft 528 kts 81°
2026-05-06 18:14 29.89670 -92.53922 34975 ft 528 kts 81°
2026-05-06 18:14 29.90872 -92.45619 34979 ft 529 kts 81°
2026-05-06 18:15 29.92079 -92.37249 34979 ft 529 kts 81°
2026-05-06 18:15 29.92680 -92.33063 34696 ft 532 kts 81°
2026-05-06 18:15 29.93284 -92.28842 33953 ft 534 kts 80°
2026-05-06 18:16 29.93890 -92.24611 33091 ft 535 kts 81°
2026-05-06 18:16 29.94495 -92.20367 32206 ft 536 kts 81°
2026-05-06 18:16 29.95099 -92.16123 31294 ft 537 kts 81°
2026-05-06 18:16 29.95705 -92.11857 30378 ft 539 kts 82°
2026-05-06 18:17 29.96307 -92.07603 29660 ft 533 kts 82°
2026-05-06 18:17 29.96900 -92.03409 28909 ft 528 kts 82°
2026-05-06 18:17 29.97487 -91.99245 28203 ft 522 kts 82°
2026-05-06 18:17 29.98064 -91.95137 27544 ft 517 kts 82°
2026-05-06 18:18 29.98446 -91.92416 27115 ft 522 kts 82°
2026-05-06 18:18 29.99028 -91.88254 26450 ft 528 kts 82°
2026-05-06 18:18 29.99613 -91.84058 25777 ft 528 kts 82°
2026-05-06 18:18 30.00193 -91.79900 25086 ft 520 kts 82°
2026-05-06 18:19 30.00764 -91.75803 24412 ft 513 kts 82°
2026-05-06 18:19 30.01324 -91.71768 23754 ft 506 kts 82°
2026-05-06 18:19 30.01877 -91.67782 23007 ft 500 kts 82°
2026-05-06 18:19 30.02419 -91.63855 22313 ft 492 kts 82°
2026-05-06 18:20 30.02952 -91.59988 21656 ft 485 kts 82°
2026-05-06 18:20 30.03477 -91.56167 21019 ft 478 kts 82°
2026-05-06 18:20 30.03994 -91.52398 20235 ft 475 kts 82°
2026-05-06 18:20 30.04503 -91.48677 19430 ft 474 kts 82°
2026-05-06 18:21 30.05013 -91.44937 18739 ft 468 kts 82°
2026-05-06 18:21 30.05514 -91.41264 18069 ft 459 kts 82°
2026-05-06 18:21 30.06005 -91.37656 17411 ft 450 kts 82°
2026-05-06 18:21 30.06486 -91.34117 16798 ft 443 kts 82°
2026-05-06 18:22 30.06959 -91.30629 16218 ft 437 kts 82°
2026-05-06 18:22 30.07425 -91.27180 15646 ft 432 kts 83°
2026-05-06 18:22 30.07885 -91.23767 15079 ft 428 kts 83°
2026-05-06 18:22 30.08339 -91.20390 14524 ft 424 kts 83°
2026-05-06 18:23 30.08785 -91.17068 13944 ft 422 kts 83°
2026-05-06 18:23 30.09238 -91.13688 13319 ft 419 kts 83°
2026-05-06 18:23 30.09675 -91.10424 12733 ft 415 kts 83°
2026-05-06 18:23 30.10113 -91.07140 12153 ft 412 kts 83°
2026-05-06 18:24 30.10548 -91.03883 11571 ft 408 kts 84°
2026-05-06 18:24 30.10974 -91.00684 11329 ft 396 kts 84°
2026-05-06 18:24 30.11389 -90.97567 11163 ft 391 kts 84°
2026-05-06 18:24 30.11722 -90.94412 10902 ft 400 kts 91°
2026-05-06 18:25 30.11561 -90.91200 10404 ft 398 kts 99°
2026-05-06 18:25 30.11246 -90.88031 9889 ft 396 kts 100°
2026-05-06 18:25 30.10927 -90.84902 9357 ft 390 kts 100°
2026-05-06 18:25 30.10638 -90.81840 8846 ft 372 kts 99°
2026-05-06 18:26 30.10389 -90.78949 8365 ft 352 kts 99°
2026-05-06 18:26 30.10165 -90.76214 7931 ft 327 kts 99°
2026-05-06 18:26 30.09964 -90.73719 7609 ft 302 kts 99°
2026-05-06 18:26 30.09769 -90.71342 7287 ft 301 kts 99°
2026-05-06 18:27 30.09499 -90.68957 6861 ft 300 kts 106°
2026-05-06 18:27 30.08986 -90.66629 6467 ft 298 kts 110°
2026-05-06 18:27 30.08419 -90.64345 6069 ft 292 kts 110°
2026-05-06 18:27 30.07868 -90.62127 5692 ft 281 kts 110°
2026-05-06 18:28 30.07340 -90.59973 5369 ft 280 kts 110°
2026-05-06 18:28 30.06805 -90.57782 4875 ft 288 kts 110°
2026-05-06 18:28 30.06265 -90.55560 4395 ft 290 kts 110°
2026-05-06 18:28 30.05736 -90.53360 4026 ft 278 kts 110°
2026-05-06 18:29 30.05229 -90.51252 3703 ft 267 kts 110°
2026-05-06 18:29 30.04739 -90.49228 3385 ft 257 kts 111°
2026-05-06 18:29 30.04265 -90.47271 3083 ft 249 kts 111°
2026-05-06 18:29 30.03807 -90.45376 2782 ft 241 kts 111°
2026-05-06 18:30 30.03367 -90.43555 2495 ft 231 kts 111°
2026-05-06 18:30 30.02947 -90.41814 2235 ft 218 kts 111°
2026-05-06 18:30 30.02551 -90.40172 1973 ft 207 kts 111°
2026-05-06 18:30 30.02177 -90.38622 1727 ft 194 kts 111°
2026-05-06 18:31 30.01825 -90.37158 1516 ft 185 kts 112°
2026-05-06 18:31 30.01488 -90.35761 1266 ft 175 kts 112°
2026-05-06 18:31 30.01178 -90.34465 1088 ft 157 kts 112°
2026-05-06 18:31 30.00902 -90.33296 913 ft 153 kts 114°
2026-05-06 18:32 30.00624 -90.32160 735 ft 145 kts 114°
2026-05-06 18:32 30.00359 -90.31046 553 ft 138 kts 114°
2026-05-06 18:32 30.00104 -90.30013 338 ft 134 kts 111°
2026-05-06 18:32 29.99859 -90.28993 176 ft 131 kts 106°
2026-05-06 18:33 29.99626 -90.28006 20 ft 123 kts 106°
2026-05-06 18:33 29.99425 -90.27182 12 ft 85 kts 105°
2026-05-06 18:33 29.99307 -90.26696 14 ft 41 kts 105°
2026-05-06 18:33 29.99266 -90.26538 13 ft 13 kts 121°
2026-05-06 18:34 29.99188 -90.26507 12 ft 9 kts 186°
2026-05-06 18:34 29.99135 -90.26473 11 ft 9 kts 123°
2026-05-06 18:34 29.99113 -90.26406 11 ft 9 kts 103°
2026-05-06 18:34 29.99096 -90.26337 10 ft 9 kts 105°
2026-05-06 18:35 29.99079 -90.26270 10 ft 9 kts 106°
2026-05-06 18:35 29.99064 -90.26204 10 ft 8 kts 104°
2026-05-06 18:35 29.99049 -90.26140 11 ft 8 kts 106°
2026-05-06 18:35 29.99033 -90.26080 11 ft 8 kts 106°
2026-05-06 18:36 29.99008 -90.26026 11 ft 8 kts 141°
2026-05-06 18:36 29.98948 -90.26001 11 ft 9 kts 166°
2026-05-06 18:36 29.98890 -90.25974 14 ft 9 kts 157°
2026-05-06 18:36 29.98843 -90.25951 15 ft 0 kts 158°